Weather in Naumovka

Russia / Tomsk District     56°45′33″N   85°06′38″E
temp.,
°C
wind,
m/s
gust,
m/s
humid.,
%
clouds,
%
prec.,
mm/h
press.,
hPa
HPBL,
m
9 december, thu
thu901:00−18sw3797100 0.3 1036325
04:00−19wsw3798100 0.1 1037271
07:00−20sw3898100 0.1 1039268
10:00−19sw31098100 0.1 1040320
13:00−17sw41194100 0.1 1040404
16:00−17sw51293100 0.0 1040478
19:00−17sw51394100 0.1 1040491
22:00−17sw51294100 0.0 1041455
10 december, fri
fri1001:00−17sw51493100 0.1 1040456
04:00−18ssw51395100 0.1 1040425
07:00−15sw51295100 0.9 1039480
10:00−15sw41195100 0.6 1039508
13:00−13sw4993100 1.0 1039479
16:00−12sw3894100 0.1 1039419
19:00−13ssw3996100 0.3 1040331
22:00−12ssw41095100 0.1 1039389
11 december, sat
sat1101:00−11ssw41294100 0.6 1037455
04:00−10ssw51389100 0.0 1036483
07:00−10ssw51584100 0.0 1034470
10:00−9ssw61681100 0.0 1032539
13:00−8ssw61778100 0.0 1030639
16:00−7ssw61678100 0.0 1027641
19:00−8ssw51581100 0.0 1025579
22:00−8sw51384100 0.0 1023549
12 december, sun
sun1201:00−9sw41090100 0.0 1022458
04:00−10wsw3895100 0.1 1021380
07:00−13wsw2698100 0.2 1021147
10:00−18w23100100 0.1 102257
13:00−16w369599 0.1 1022250
16:00−17wnw259697 0.0 1023206
19:00−22w1410098 0.1 102562
22:00−22wsw1310094 0.1 102644
13 december, mon
mon1301:00−23wsw1310096 0.1 102748
04:00−22sw24100100 0.1 1028100
07:00−20sw2698100 0.1 1029245
10:00−20ssw2698100 0.1 1028246
13:00−18sw3594100 0.3 1028364
16:00−17ssw2595100 0.4 1027356
19:00−17s269781 0.6 1026206
22:00−17sse1498100 0.2 1025113